Date String (YYYY-MM-DD hh:mm:ss) UTC,Instrument flags,absolute air pressure of the measurement (hPa),sample flow rate (lpm),inlet stack bypass flow (lpm),air temperature of the measurement (°C),ambient temperature measured by the external sensor (°C),aerosol sample conditioner tube jacket temperature (°C),OPC LED temperature (°C),internal box temperature (°C),relative humidity of the measurement (%),span deviation,mass concentration of particles derived from Lorenz-Mie calculation of OPC scattering (μg/m³),mass concentration of particles derived from Lorenz-Mie calculation of OPC scattering (μg/m³),mass concentration of particles derived from Lorenz-Mie calculation of OPC scattering (μg/m³)
DateTimeUTC,F1_M11,P_M11,Q1_M11,Q2_M11,T1_M11,T2_M11,T3_M11,T4_M11,T5_M11,U1_M11,ZSPAN_M11,X0_M11,X2_M11,X1_M11
2023-05-31 13:00:00,SystemResetWarning,0828.3,5.00,000.00,028.3,026.8,000.0,036.6,030.0,27.3,0000.0,0013.70,0005.55,0003.95
2023-05-31 13:01:00,SystemResetWarning,0828.3,5.00,000.00,028.3,026.8,000.0,036.6,030.0,27.3,0000.0,0014.24,0005.67,0004.02
2023-05-31 13:02:00,SystemResetWarning,0828.4,5.01,000.00,028.4,026.8,000.0,036.6,030.0,27.3,0000.7,0014.73,0005.73,0004.07
2023-05-31 13:03:00,SystemResetWarning,0828.3,5.00,000.00,028.4,026.8,000.0,036.6,030.0,27.4,0002.2,0015.01,0005.82,0004.11
2023-05-31 13:04:00,SystemResetWarning,0828.4,5.00,000.00,028.4,026.8,000.0,036.6,030.0,27.5,0002.3,0014.56,0005.87,0004.14
2023-05-31 13:05:00,SystemResetWarning,0828.4,5.00,000.00,028.4,026.8,000.0,036.6,030.0,27.4,0002.9,0014.67,0005.93,0004.17
2023-05-31 13:06:00,SystemResetWarning,0828.4,4.99,000.00,028.4,026.8,000.0,036.7,030.0,27.5,0002.6,0015.44,0005.90,0004.20
2023-05-31 13:07:00,SystemResetWarning,0828.4,4.99,000.00,028.4,026.8,000.0,036.7,030.0,27.5,0002.1,0015.69,0005.93,0004.22
2023-05-31 13:08:00,SystemResetWarning,0828.4,5.01,000.00,028.4,026.7,000.0,036.7,030.0,27.4,0001.9,0015.09,0005.95,0004.24
2023-05-31 13:09:00,SystemResetWarning,0828.4,5.01,000.00,028.4,026.7,000.0,036.7,030.0,27.5,0001.0,0015.73,0005.92,0004.25
2023-05-31 13:10:00,SystemResetWarning,0828.4,5.01,000.00,028.4,026.7,000.0,036.7,030.0,27.6,0001.0,0015.73,0005.93,0004.25
2023-05-31 13:11:00,SystemResetWarning,0828.4,5.00,000.00,028.4,026.7,000.0,036.7,030.0,27.3,0001.5,0016.21,0005.97,0004.26
2023-05-31 13:12:00,SystemResetWarning,0828.4,4.99,000.00,028.4,026.7,000.0,036.7,030.0,27.3,0001.8,0016.32,0005.99,0004.27
2023-05-31 13:13:00,SystemResetWarning,0828.4,5.00,000.00,028.4,026.7,000.0,036.7,030.0,27.5,0001.7,0016.13,0005.97,0004.28
2023-05-31 13:14:00,SystemResetWarning,0828.4,5.00,000.00,028.4,026.7,000.0,036.7,030.0,27.5,0001.7,0015.98,0005.99,0004.30
2023-05-31 13:15:00,SystemResetWarning,0828.4,5.00,000.00,028.4,026.7,000.0,036.7,030.0,27.6,0001.6,0015.79,0005.96,0004.31
2023-05-31 13:16:00,SystemResetWarning,0828.4,5.00,000.00,028.4,026.7,000.0,036.7,030.0,27.6,0001.6,0016.74,0005.97,0004.31
2023-05-31 13:17:00,SystemResetWarning,0828.4,5.01,000.00,028.4,026.7,000.0,036.7,030.0,27.5,0001.5,0016.46,0005.98,0004.32
2023-05-31 13:18:00,SystemResetWarning,0828.4,5.00,000.00,028.4,026.7,000.0,036.7,030.0,27.4,0001.8,0015.80,0005.94,0004.34
2023-05-31 13:19:00,SystemResetWarning,0828.4,5.00,000.00,028.4,026.7,000.0,036.7,030.0,27.5,0001.7,0015.71,0005.85,0004.35
2023-05-31 13:20:00,SystemResetWarning,0828.5,4.99,000.00,028.4,026.7,000.0,036.7,030.0,27.4,0001.8,0015.38,0005.86,0004.34
2023-05-31 13:21:00,SystemResetWarning,0828.5,4.99,000.00,028.4,026.7,000.0,036.7,030.0,27.6,0002.2,0015.27,0005.86,0004.35
2023-05-31 13:22:00,SystemResetWarning,0828.5,5.01,000.00,028.4,026.7,000.0,036.7,030.0,27.5,0002.2,0015.83,0005.89,0004.37
2023-05-31 13:23:00,SystemResetWarning,0828.4,5.00,000.00,028.4,026.7,000.0,036.7,030.0,27.5,0002.4,0015.98,0005.90,0004.37
2023-05-31 13:24:00,SystemResetWarning,0828.4,5.01,000.00,028.4,026.7,000.0,036.7,030.0,27.6,0002.8,0015.70,0005.93,0004.37
2023-05-31 13:25:00,SystemResetWarning,0828.5,5.00,000.00,028.4,026.7,000.0,036.7,030.0,27.6,0002.9,0016.59,0005.96,0004.37
2023-05-31 13:26:00,SystemResetWarning,0828.5,5.00,000.00,028.4,026.7,000.0,036.7,030.0,27.6,0003.3,0016.66,0006.03,0004.38
2023-05-31 13:27:00,SystemResetWarning,0828.5,5.00,000.00,028.4,026.7,000.0,036.7,030.0,27.6,0003.4,0015.48,0006.00,0004.38
2023-05-31 13:28:00,SystemResetWarning,0828.5,5.00,000.00,028.4,026.7,000.0,036.7,030.0,27.7,0003.6,0015.67,0006.01,0004.38
2023-05-31 13:29:00,SystemResetWarning,0828.5,5.00,000.00,028.4,026.7,000.0,036.7,030.0,27.6,0003.8,0015.90,0006.04,0004.38
2023-05-31 13:30:00,SystemResetWarning,0828.4,5.00,000.00,028.3,026.6,000.0,036.7,030.0,27.7,0004.2,0016.25,0006.08,0004.38
2023-05-31 13:31:00,SystemResetWarning,0828.4,4.99,000.00,028.3,026.6,000.0,036.7,030.0,27.9,0004.4,0016.23,0006.14,0004.39
2023-05-31 13:32:00,SystemResetWarning,0828.4,5.00,000.00,028.3,026.6,000.0,036.7,029.9,27.8,0000.0,0016.42,0006.19,0004.40
2023-05-31 13:33:00,SystemResetWarning,0828.4,5.00,000.00,028.3,026.6,000.0,036.7,030.0,27.7,0000.0,0015.88,0006.14,0004.39
2023-05-31 13:34:00,SystemResetWarning,0828.4,5.00,000.00,028.3,026.6,000.0,036.7,029.9,27.8,0000.0,0014.81,0006.10,0004.39
2023-05-31 13:35:00,SystemResetWarning,0828.4,5.00,000.00,028.3,026.6,000.0,036.7,029.9,27.7,0000.0,0014.99,0006.14,0004.41
2023-05-31 13:36:00,SystemResetWarning,0828.4,5.00,000.00,028.3,026.7,000.0,036.7,029.9,27.9,0000.0,0014.04,0006.15,0004.43
2023-05-31 13:37:00,SystemResetWarning,0828.4,5.00,000.00,028.4,026.7,000.0,036.7,030.0,28.1,0001.8,0014.01,0006.08,0004.43
2023-05-31 13:38:00,SystemResetWarning,0828.4,5.01,000.00,028.3,026.7,000.0,036.7,030.0,27.9,0001.4,0015.07,0006.10,0004.44
2023-05-31 13:39:00,SystemResetWarning,0828.5,5.01,000.00,028.3,026.7,000.0,036.7,030.0,27.7,0003.2,0014.93,0006.10,0004.44
2023-05-31 13:40:00,SystemResetWarning,0828.5,5.00,000.00,028.3,026.6,000.0,036.7,030.0,27.9,0003.0,0014.66,0006.11,0004.44
2023-05-31 13:41:00,SystemResetWarning,0828.6,5.00,000.00,028.3,026.6,000.0,036.7,029.9,28.4,0002.3,0014.89,0006.11,0004.46
2023-05-31 13:42:00,SystemResetWarning,0828.5,5.00,000.00,028.3,026.6,000.0,036.7,029.9,28.6,0001.6,0014.95,0006.13,0004.48
2023-05-31 13:43:00,SystemResetWarning,0828.5,5.00,000.00,028.3,026.6,000.0,036.7,029.9,28.5,0001.1,0014.83,0006.13,0004.47
2023-05-31 13:44:00,SystemResetWarning,0828.6,4.99,000.00,028.3,026.6,000.0,036.7,029.9,28.3,0000.9,0014.56,0006.07,0004.48
2023-05-31 13:45:00,SystemResetWarning,0828.5,4.99,000.00,028.3,026.6,000.0,036.7,029.9,28.1,0001.3,0016.01,0006.13,0004.50
2023-05-31 13:46:00,SystemResetWarning,0828.5,5.00,000.00,028.3,026.6,000.0,036.7,029.9,28.1,0002.1,0016.71,0006.10,0004.48
2023-05-31 13:47:00,SystemResetWarning,0828.5,5.00,000.00,028.3,026.6,000.0,036.7,029.9,28.4,0002.6,0018.07,0006.03,0004.45
2023-05-31 13:48:00,SystemResetWarning,0828.5,5.02,000.00,028.3,026.7,000.0,036.7,030.0,28.2,0002.7,0018.73,0006.05,0004.47
2023-05-31 13:49:00,SystemResetWarning,0828.5,5.00,000.00,028.3,026.7,000.0,036.7,030.0,27.9,0002.2,0018.98,0006.03,0004.46
2023-05-31 13:50:00,SystemResetWarning,0828.5,4.98,000.00,028.3,026.7,000.0,036.7,030.0,27.8,0001.9,0019.22,0006.05,0004.45
2023-05-31 13:51:00,SystemResetWarning,0828.4,5.01,000.00,028.3,026.7,000.0,036.7,029.9,27.6,0001.6,0019.87,0006.10,0004.46
2023-05-31 13:52:00,SystemResetWarning,0828.4,5.01,000.00,028.3,026.7,000.0,036.7,029.9,27.3,0001.9,0019.51,0006.05,0004.44
2023-05-31 13:53:00,SystemResetWarning,0828.4,4.99,000.00,028.3,026.7,000.0,036.7,029.9,27.4,0002.1,0019.64,0006.00,0004.41
2023-05-31 13:54:00,SystemResetWarning,0828.4,4.99,000.00,028.3,026.7,000.0,036.7,029.9,27.3,0000.3,0020.16,0005.99,0004.40
2023-05-31 13:55:00,SystemResetWarning,0828.4,5.00,000.00,028.3,026.7,000.0,036.7,029.9,27.6,0000.0,0020.10,0006.02,0004.38
2023-05-31 13:56:00,SystemResetWarning,0828.4,5.01,000.00,028.3,026.6,000.0,036.7,029.9,27.3,0000.0,0018.98,0006.06,0004.36
2023-05-31 13:57:00,SystemResetWarning,0828.4,5.01,000.00,028.3,026.6,000.0,036.7,029.9,27.2,0000.0,0018.33,0006.02,0004.35
2023-05-31 13:58:00,SystemResetWarning,0828.4,5.00,000.00,028.3,026.6,000.0,036.7,029.9,27.3,0000.0,0016.82,0006.02,0004.34
2023-05-31 13:59:00,SystemResetWarning,0828.4,5.00,000.00,028.3,026.6,000.0,036.7,029.9,27.4,0000.0,0017.15,0006.01,0004.30
